SDSS Observing Night 54056

Science Imaging Data

MJD Run Stripe Strip Node Incl. Start mu End mu Last frame Quality Available Reruns (by camera column)
1 2 3 4 5 6
54056.41061 6568 82 S 95 0 294.27 62.32 869 good 40 40 40 40 40 40

Science Spectroscopic Data

Spectroscopic Plates Observed

Spectroscopic Exposures

Time MJD Exposure ID Camera Plate Tile ID Map ID R. A. Dec. Target name
21:52:44.32 54055.91124 41436 b1 2438 1721 5405501 139.317 14.7508 2438-54055-01
21:52:44.32 54055.91124 41436 r1 2438 1721 5405501 139.317 14.7508 2438-54055-01
21:52:44.32 54055.91124 41436 b2 2438 1721 5405501 139.317 14.7508 2438-54055-01
21:52:44.32 54055.91124 41436 r2 2438 1721 5405501 139.317 14.7508 2438-54055-01
21:55:06.27 54055.91289 41437 b1 2438 1721 5405501 139.317 14.7508 2438-54055-01
21:55:06.27 54055.91289 41437 r1 2438 1721 5405501 139.317 14.7508 2438-54055-01
21:55:06.27 54055.91289 41437 b2 2438 1721 5405501 139.317 14.7508 2438-54055-01
21:55:06.27 54055.91289 41437 r2 2438 1721 5405501 139.317 14.7508 2438-54055-01
21:59:00.60 54055.9156 41438 b1 2438 1721 5405501 139.317 14.7508 2438-54055-01
21:59:00.60 54055.9156 41438 r1 2438 1721 5405501 139.317 14.7508 2438-54055-01
21:59:00.60 54055.9156 41438 b2 2438 1721 5405501 139.317 14.7508 2438-54055-01
21:59:00.60 54055.9156 41438 r2 2438 1721 5405501 139.317 14.7508 2438-54055-01
22:01:27.90 54055.9173 41439 b1 2438 1721 5405501 139.317 14.7508 2438-54055-01
22:01:27.90 54055.9173 41439 r1 2438 1721 5405501 139.317 14.7508 2438-54055-01
22:01:27.90 54055.9173 41439 b2 2438 1721 5405501 139.317 14.7508 2438-54055-01
22:01:27.90 54055.9173 41439 r2 2438 1721 5405501 139.317 14.7508 2438-54055-01
10:24:15.62 54056.43313 41441 b1 2438 1721 5405501 139.317 14.7508 2438-54055-01
10:24:15.62 54056.43313 41441 r1 2438 1721 5405501 139.317 14.7508 2438-54055-01
10:24:15.62 54056.43313 41441 b2 2438 1721 5405501 139.317 14.7508 2438-54055-01
10:24:15.62 54056.43313 41441 r2 2438 1721 5405501 139.317 14.7508 2438-54055-01
10:26:37.31 54056.43477 41442 b1 2438 1721 5405501 139.317 14.7508 2438-54055-01
10:26:37.31 54056.43477 41442 r1 2438 1721 5405501 139.317 14.7508 2438-54055-01
10:26:37.31 54056.43477 41442 b2 2438 1721 5405501 139.317 14.7508 2438-54055-01
10:26:37.31 54056.43477 41442 r2 2438 1721 5405501 139.317 14.7508 2438-54055-01
10:50:55.94 54056.45165 41443 b1 2438 1721 5405501 139.317 14.7508 2438-54055-01
10:50:55.94 54056.45165 41443 r1 2438 1721 5405501 139.317 14.7508 2438-54055-01
10:50:55.94 54056.45165 41443 b2 2438 1721 5405501 139.317 14.7508 2438-54055-01
10:50:55.94 54056.45165 41443 r2 2438 1721 5405501 139.317 14.7508 2438-54055-01
11:10:50.69 54056.46548 41444 b1 2572 1793 5405602 127.6643 9.6227 2572-54056-02
11:10:50.69 54056.46548 41444 r1 2572 1793 5405602 127.6643 9.6227 2572-54056-02
11:10:50.69 54056.46548 41444 b2 2572 1793 5405602 127.6643 9.6227 2572-54056-02
11:10:50.69 54056.46548 41444 r2 2572 1793 5405602 127.6643 9.6227 2572-54056-02
11:13:13.52 54056.46714 41445 b1 2572 1793 5405602 127.6643 9.6227 2572-54056-02
11:13:13.52 54056.46714 41445 r1 2572 1793 5405602 127.6643 9.6227 2572-54056-02
11:13:13.52 54056.46714 41445 b2 2572 1793 5405602 127.6643 9.6227 2572-54056-02
11:13:13.52 54056.46714 41445 r2 2572 1793 5405602 127.6643 9.6227 2572-54056-02
11:37:54.63 54056.48428 41446 b1 2572 1793 5405602 127.6643 9.6227 2572-54056-02
11:37:54.63 54056.48428 41446 r1 2572 1793 5405602 127.6643 9.6227 2572-54056-02
11:37:54.63 54056.48428 41446 b2 2572 1793 5405602 127.6643 9.6227 2572-54056-02
11:37:54.63 54056.48428 41446 r2 2572 1793 5405602 127.6643 9.6227 2572-54056-02
12:00:33.37 54056.5 41447 b1 2572 1793 5405602 127.6643 9.6227 2572-54056-02
12:00:33.37 54056.5 41447 r1 2572 1793 5405602 127.6643 9.6227 2572-54056-02
12:00:33.37 54056.5 41447 b2 2572 1793 5405602 127.6643 9.6227 2572-54056-02
12:00:33.37 54056.5 41447 r2 2572 1793 5405602 127.6643 9.6227 2572-54056-02
12:18:46.36 54056.51265 41448 b1 2572 1793 5405602 127.6643 9.6227 2572-54056-02
12:18:46.36 54056.51265 41448 r1 2572 1793 5405602 127.6643 9.6227 2572-54056-02
12:18:46.36 54056.51265 41448 b2 2572 1793 5405602 127.6643 9.6227 2572-54056-02
12:18:46.36 54056.51265 41448 r2 2572 1793 5405602 127.6643 9.6227 2572-54056-02

The infrared camera

An infrared camera is useful for tracking clouds in the sky, because clouds glow in the infrared.

An mpeg movie shows how the clouds moved through the night.

variance plot

You can also download the image pixel basic statistics.

Weather Data

Date Pressure Air temp. Dewpoint Humidity Humidity (out) Dust/A Dust/B Wind direction Wind speed
2006-11-16 16:49:04Z 21.475 5.8 -18.3 15.7 16 5536 111 6.2 13.8
2006-11-16 16:53:05Z 21.474 5.8 -18.5 15.4 15 5068 90 26.4 12
2006-11-16 16:57:06Z 21.475 5.8 -18.9 14.9 15 5001 85 356.9 8.1
2006-11-16 17:01:07Z 21.474 5.9 -19.9 13.6 14 4932 87 359.5 10.3
2006-11-16 17:05:08Z 21.474 5.9 -19.8 13.7 14 4932 87 37.4 3.4
2006-11-16 17:09:09Z 21.475 6.1 -19.1 14.5 14 5240 108 4.3 3.8
2006-11-16 17:13:10Z 21.475 6.1 -18.3 15.4 15 5372 99 40.5 9.1
2006-11-16 17:17:12Z 21.477 6.2 -18.1 15.6 16 4760 86 359.6 11.3
2006-11-16 17:21:13Z 21.475 6.1 -18.5 15.1 15 5285 91 332.2 11.1
2006-11-16 17:25:14Z 21.473 6.1 -18.6 15.1 15 5285 91 356.1 15.1
2006-11-16 17:29:15Z 21.474 6.2 -18 15.6 16 5561 73 359.1 8.5
2006-11-16 17:33:16Z 21.474 6.3 -17.8 15.8 16 5908 101 359.1 9.8
2006-11-16 17:37:17Z 21.474 6.1 -18 15.8 16 6713 122 0.2 10.7
2006-11-16 17:41:18Z 21.472 6.6 -17.8 15.6 16 6748 133 339.5 13.7
2006-11-16 17:45:19Z 21.472 6.7 -16.2 17.6 18 6748 133 345.3 2.8
2006-11-16 17:49:20Z 21.472 6.6 -16.4 17.4 17 5860 91 321.3 4.3
2006-11-16 17:57:22Z 21.47 6.6 -16.3 17.6 18 5684 102 346.8 10.2
2006-11-16 18:05:24Z 21.468 6.4 -17.2 16.5 16 5912 97 348.5 4.8
2006-11-16 18:09:25Z 21.467 6.3 -17.4 16.4 16 8002 135 1.1 12.3
2006-11-16 18:13:26Z 21.468 6.2 -17.8 15.9 16 8798 146 329.1 14.6
2006-11-16 18:17:28Z 21.468 6.2 -17.8 15.9 16 6544 123 7 7.6
2006-11-16 18:21:29Z 21.467 6.4 -17.1 16.7 17 7329 133 353.3 8.4
2006-11-16 18:25:30Z 21.464 6.2 -17.4 16.5 17 7329 133 6.5 12.3
2006-11-16 18:29:31Z 21.464 6.3 -17.3 16.5 16 7981 128 30.2 5.4
2006-11-16 18:33:32Z 21.461 6.2 -17.8 15.9 16 7648 134 352.6 5.1
2006-11-16 18:37:33Z 21.459 6.2 -17.8 15.9 16 7295 125 6.6 6.6
2006-11-16 18:41:34Z 21.455 6.6 -16.6 17.1 17 6626 140 351.4 9.8
2006-11-16 18:49:36Z 21.455 6.6 -16.5 17.3 17 6387 120 352.6 5.8
2006-11-16 18:53:38Z 21.456 6.4 -17.8 15.7 16 8422 133 358.8 6.6
2006-11-16 18:57:39Z 21.454 6.3 -18.3 15.1 15 7192 142 12.6 11.4
2006-11-16 19:01:40Z 21.454 6.4 -17.4 16.3 16 9253 178 357.6 9.2
2006-11-16 19:05:41Z 21.453 6.4 -17.8 15.6 16 9253 178 12.7 11.2
2006-11-16 19:09:42Z 21.45 6.4 -16.8 17 17 8511 161 337.6 13.6
2006-11-16 19:13:43Z 21.451 6.9 -15.1 19.1 19 7334 154 0.7 6.6
2006-11-16 19:17:44Z 21.449 7 -15 19.1 19 9078 208 323.1 8.8
2006-11-16 19:21:45Z 21.444 6.6 -15.6 18.6 19 8509 152 351 7.4
2006-11-16 19:25:46Z 21.444 6.9 -15 19.2 19 8509 152 347.5 5.8
2006-11-16 19:29:47Z 21.443 6.9 -14.9 19.3 19 8590 176 324.6 17
2006-11-16 19:33:48Z 21.442 7.2 -14.6 19.5 19 8357 154 341.2 5.7
2006-11-16 19:37:49Z 21.443 7.3 -14.6 19.4 19 5903 126 336.8 21.5
2006-11-16 19:41:50Z 21.44 7.4 -13.8 20.4 20 4653 89 354.2 13.6
2006-11-16 19:45:51Z 21.44 7.3 -13.7 20.8 21 4653 89 281.9 4
2006-11-16 19:49:52Z 21.441 7.5 -13.8 20.4 20 4303 94 8.7 7.2
2006-11-16 19:53:53Z 21.441 7.4 -13.8 20.4 20 6581 125 307.8 14.6
2006-11-16 19:57:54Z 21.441 7.5 -13.8 20.3 20 6035 120 307.8 14.6
2006-11-16 20:05:56Z 21.441 7.6 -13.3 21.1 21 3312 90 307.8 14.6
2006-11-16 20:09:57Z 21.441 7.5 -13.4 21 21 5257 112 307.8 14.6
2006-11-16 20:13:58Z 21.44 7.8 -12.9 21.4 21 5354 132 0 -8.20477579773382e+304
2006-11-16 20:17:59Z 21.439 7.6 -12.9 21.7 22 3909 88 8.1 1
2006-11-16 20:22:00Z 21.437 7.6 -12.7 22.1 22 3404 71 324.9 4.6
2006-11-16 20:26:01Z 21.438 8.1 -12.1 22.5 22 3404 71 42.6 2
2006-11-16 20:30:02Z 21.437 8.1 -11.9 22.8 23 3046 59 328.3 15.3
2006-11-16 20:34:03Z 21.435 7.9 -11.8 23.2 23 3048 82 308 9.9
2006-11-16 20:38:05Z 21.435 8.5 -11.3 23.3 23 3539 74 280.3 5.5
2006-11-16 20:42:06Z 21.434 8.2 -11.7 23 23 3477 117 318.8 13.7
2006-11-16 20:46:07Z 21.433 8.3 -11.8 22.6 23 3910 84 27.6 4
2006-11-16 20:50:08Z 21.433 8.4 -11.6 22.9 23 3910 84 291.4 9.4
2006-11-16 20:54:09Z 21.433 8.3 -11.6 23 23 3696 97 356 7
2006-11-16 20:58:10Z 21.432 8.5 -11.6 22.7 23 3791 85 348.9 3.5
2006-11-16 21:02:11Z 21.431 8.5 -11 23.8 24 3483 83 356.3 6.4
2006-11-16 21:06:12Z 21.43 8.2 -11.9 22.5 23 3993 99 325.1 6
2006-11-16 21:10:13Z 21.43 9.6 -11.4 21.4 21 3993 99 309.1 13.4
2006-11-16 21:18:15Z 21.429 8.5 -11.7 22.5 22 4172 102 318.3 11.5
2006-11-16 21:22:16Z 21.429 8.4 -11.3 23.3 23 2555 58 307 12.8
2006-11-16 21:26:17Z 21.429 8.5 -11.5 22.9 23 3439 97 335.6 10.6
2006-11-16 21:28:05Z 21.428 8.6 -11.5 22.8 23 3439 97 306.1 11.1
2006-11-16 21:32:06Z 21.428 8.6 -11.4 23 23 3796 117 316 7.8
2006-11-16 21:36:07Z 21.427 8.5 -11.1 23.7 24 4468 131 295.8 8.7
2006-11-16 21:40:08Z 21.427 8.2 -11.6 23.1 23 4468 131 289.8 11.5
2006-11-16 21:44:09Z 21.427 8.5 -11.3 23.2 23 3460 87 298.6 11
2006-11-16 21:45:37Z 21.427 8.6 -11.1 23.4 23 3460 87 338.6 9.8
2006-11-16 21:47:36Z 21.426 8.5 -11.3 23.3 23 3349 73 286.3 7.9
2006-11-16 21:48:10Z 21.426 8.5 -11.3 23.3 23 3349 73 317.7 14.7
2006-11-16 21:48:50Z 21.426 8.2 -11.4 23.6 24 3349 73 352.8 4.3
2006-11-16 21:50:04Z 21.425 8.2 -11.5 23.4 23 3349 73 331.3 7.9
2006-11-16 21:50:24Z 21.425 8.6 -11.4 22.8 23 3349 73 292.5 10.4
2006-11-16 21:51:16Z 21.426 8.8 -11.4 22.7 23 3359 69 284.3 6.4
2006-11-16 21:52:11Z 21.426 8.3 -11.3 23.5 23 3359 69 304.8 7.4
2006-11-16 21:52:29Z 21.426 8.3 -11.3 23.5 23 3359 69 330.5 10.9
2006-11-16 21:53:45Z 21.427 8.2 -11.7 23 23 3359 69 196.9 0.3
2006-11-16 21:54:58Z 21.426 8.2 -11.7 23 23 3359 69 276.3 6.9
2006-11-16 21:55:33Z 21.426 8.3 -11.7 22.7 23 3359 69 296.6 5.5
2006-11-16 21:56:12Z 21.427 8.4 -11.6 22.9 23 3676 84 320.9 7.3
2006-11-16 21:56:12Z 21.427 8.4 -11.6 22.9 23 3676 84 320.9 7.3
2006-11-16 21:57:25Z 21.427 8.3 -11.7 22.8 23 3676 84 314.9 7.9
2006-11-16 21:58:38Z 21.427 8.2 -11.6 23.2 23 3676 84 6.3 6.8
2006-11-16 21:59:51Z 21.424 8.2 -11.6 23.1 23 3676 84 276.9 1.8
2006-11-16 22:00:13Z 21.425 8.2 -11.7 23.1 23 3676 84 314.6 3.4
2006-11-16 22:02:31Z 21.425 8.4 -11.3 23.5 23 4097 101 302.7 8.9
2006-11-16 22:04:14Z 21.424 8.6 -11.2 23.3 23 4097 101 306.4 11.9
2006-11-16 22:04:15Z 21.424 8.6 -11.2 23.3 23 4097 101 309.1 11.6
2006-11-16 22:05:41Z 21.424 8.4 -11.3 23.3 23 4097 101 353.1 8.4
2006-11-16 22:06:32Z 21.424 8.5 -11.2 23.5 24 3596 86 316.1 17.6
2006-11-16 22:07:00Z 21.424 8.4 -11.2 23.6 24 3596 86 304.3 11.2
2006-11-16 22:08:15Z 21.422 8.4 -11.3 23.3 23 3596 86 323.4 14.2
2006-11-16 22:08:23Z 21.422 8.3 -11.2 23.7 24 3596 86 317 10.4
2006-11-16 22:09:53Z 21.422 8.8 -10.9 23.6 24 3596 86 307.4 14
2006-11-16 22:10:34Z 21.423 8.7 -11.1 23.4 23 3596 86 280.1 9.7
2006-11-16 22:12:16Z 21.422 8.7 -10.9 23.7 24 4507 125 304.7 10.2
2006-11-16 22:13:54Z 21.422 8.4 -11.3 23.4 23 4507 125 313.5 11.9
2006-11-16 22:14:36Z 21.422 8.4 -11.2 23.5 23 4507 125 285 10
2006-11-16 22:15:20Z 21.422 8.3 -11.3 23.6 24 4507 125 284.3 8.4
2006-11-16 22:16:17Z 21.422 8.1 -11.6 23.4 23 4833 147 285.7 9.5
2006-11-16 22:16:40Z 21.422 8.5 -11.4 23.1 23 4833 147 297.3 7.3
2006-11-16 22:18:03Z 21.423 8.5 -11.4 23 23 4833 147 290.5 13.6
2006-11-16 22:18:37Z 21.423 8.3 -11.4 23.3 23 4833 147 301.9 12.6
2006-11-16 22:19:33Z 21.423 8.6 -11.3 23.2 23 4833 147 322.5 11.8
2006-11-16 22:20:18Z 21.423 8.2 -11.3 23.7 24 4833 147 333.7 8.7
2006-11-16 22:22:38Z 21.423 8.2 -11.3 23.7 24 4331 124 342.8 10.7
2006-11-16 22:23:34Z 21.422 8.1 -11.4 23.7 24 4331 124 284.5 6.2
2006-11-16 22:24:19Z 21.423 8.1 -11.5 23.5 24 4331 124 302.1 5.9
2006-11-16 22:25:00Z 21.423 8.1 -11.5 23.5 24 4331 124 278.6 7.1
2006-11-16 22:26:20Z 21.424 8.4 -11.3 23.5 23 5507 149 325.5 10.4
2006-11-16 22:26:39Z 21.424 8.4 -11.4 23.2 23 5507 149 329 11.9
2006-11-16 22:27:43Z 21.422 8.3 -11.4 23.3 23 5507 149 317 13.5
2006-11-16 22:28:20Z 21.423 8.1 -11.5 23.5 24 5507 149 302.5 10.7
2006-11-16 22:29:13Z 21.422 8.1 -11.5 23.5 24 5507 149 274.3 2.7
2006-11-16 22:30:40Z 21.423 9.2 -11.1 22.6 23 5507 149 327.8 11.6
2006-11-16 22:31:26Z 21.422 8.5 -11.5 22.9 23 4519 130 321 11.8
2006-11-16 22:32:21Z 21.422 8.4 -11.4 23.1 23 4519 130 279.1 11.2
2006-11-16 22:33:13Z 21.422 8.4 -11.3 23.5 23 4519 130 308.7 13.2
2006-11-16 22:34:37Z 21.424 8.2 -11.6 23.1 23 4519 130 305.8 3.8
2006-11-16 22:34:41Z 21.424 8.2 -11.6 23.1 23 4519 130 331.2 5.7
2006-11-16 22:35:59Z 21.422 8.2 -11.6 23.1 23 4519 130 292.6 13.6
2006-11-16 22:36:22Z 21.422 8.2 -11.6 23.2 23 4751 146 317.3 14.1
2006-11-16 22:37:22Z 21.422 8.2 -11.6 23.3 23 4751 146 317.2 11.1
2006-11-16 22:38:42Z 21.422 8.3 -11.4 23.3 23 4751 146 328.3 12.8
2006-11-16 22:38:53Z 21.422 8.3 -11.4 23.3 23 4751 146 284.4 7
2006-11-16 22:40:23Z 21.422 8.1 -11.4 23.6 24 4751 146 250.8 3.8
2006-11-16 22:42:44Z 21.422 8.6 -11.4 23 23 4531 124 315.5 15.5
2006-11-16 22:42:53Z 21.422 8.7 -11.4 22.7 23 4531 124 321.2 13.8
2006-11-16 22:42:56Z 21.422 8.7 -11.4 22.7 23 4531 124 334.1 16.2
2006-11-16 22:44:18Z 21.419 8.5 -11.3 23.2 23 4531 124 295.6 8.7
2006-11-16 22:44:24Z 21.419 8.5 -11.3 23.2 23 4531 124 302.6 6.8
2006-11-16 22:45:39Z 21.419 8.3 -11.4 23.3 23 4531 124 268 6.3
2006-11-16 22:46:45Z 21.419 8.3 -11.5 23.2 23 4589 118 309.1 15
2006-11-16 22:47:03Z 21.419 8.3 -11.5 23.2 23 4589 118 3.4 4.7
2006-11-16 22:48:25Z 21.421 8.2 -11.8 22.9 23 4589 118 322.7 9.2
2006-11-16 22:48:33Z 21.421 8.2 -11.8 22.9 23 4589 118 324.6 17.6
2006-11-16 22:50:46Z 21.422 7.8 -11.6 23.9 24 4589 118 343.5 10
2006-11-16 22:52:26Z 21.422 7.9 -11.8 23.2 23 5004 131 309.1 10.5
2006-11-16 22:54:48Z 21.421 8 -11.8 23.1 23 5004 131 331.5 7.5
2006-11-16 22:56:27Z 21.421 7.8 -11.8 23.5 24 4294 99 299.5 12.5
2006-11-16 22:58:49Z 21.422 7.8 -11.9 23.3 23 4294 99 321 12
2006-11-16 23:00:28Z 21.422 7.7 -11.8 23.5 24 4294 99 312.7 8.3
2006-11-16 23:02:50Z 21.422 7.7 -11.7 23.8 24 5066 114 312.4 10.9
2006-11-16 23:06:51Z 21.422 7.9 -11.9 23.1 23 4355 98 330.1 10.4
2006-11-16 23:08:30Z 21.422 7.9 -11.9 23.1 23 4355 98 329.7 14.4
2006-11-16 23:10:52Z 21.422 7.8 -11.7 23.5 24 4355 98 315.3 8.1
2006-11-16 23:12:31Z 21.42 8 -12.1 22.6 23 3722 78 337 11.6
2006-11-16 23:14:53Z 21.42 8.1 -11.4 23.6 24 3722 78 291.1 9.8
2006-11-16 23:16:32Z 21.42 7.9 -11.8 23.2 23 3644 83 322.2 18.7
2006-11-16 23:18:54Z 21.42 7.9 -11.4 24.1 24 3644 83 319.2 12.2
2006-11-16 23:22:55Z 21.419 8.2 -12 22.4 22 3779 82 291.2 8.2
2006-11-16 23:24:34Z 21.421 8.2 -11.7 22.9 23 3779 82 306.7 12.8
2006-11-16 23:26:56Z 21.419 8.2 -11.8 22.7 23 3110 93 335.1 19.5
2006-11-16 23:28:35Z 21.419 8.4 -11.7 22.7 23 3110 93 311.7 8.6
2006-11-16 23:30:57Z 21.419 8.3 -11.8 22.6 23 3110 93 315.8 16.9
2006-11-16 23:32:36Z 21.419 8.1 -11.8 23 23 3556 60 331.5 12.6
2006-11-16 23:34:58Z 21.419 8.2 -12.1 22.3 22 3556 60 304.1 21.1
2006-11-16 23:36:37Z 21.419 8.4 -12.1 22.1 22 3785 64 299.5 20.7
2006-11-16 23:39:00Z 21.416 8.7 -11.8 22.1 22 3785 64 340 14.1
2006-11-16 23:40:38Z 21.416 8.1 -11.6 23.4 23 3785 64 291.4 19
2006-11-16 23:43:02Z 21.416 8.4 -12.5 21.2 21 3881 86 309.1 7.1
2006-11-16 23:44:39Z 21.416 8.5 -12.1 21.9 22 3881 86 316 12.7
2006-11-16 23:47:03Z 21.41 8.2 -11.6 23.1 23 4182 82 334.8 14.2
2006-11-16 23:48:40Z 21.41 8.1 -12.4 21.8 22 4182 82 332.2 16.3
2006-11-16 23:52:42Z 21.41 8.4 -12 22.1 22 4530 95 321 15.1
2006-11-16 23:56:43Z 21.409 8.2 -12.1 22.2 22 4445 64 288.3 12.6
2006-11-17 00:00:33Z 21.411 8.4 -12.6 21.1 21 4445 64 318.5 13.5
2006-11-17 00:02:08Z 21.407 8.5 -12.6 21 21 4646 86 326.3 19.9
2006-11-17 00:03:41Z 21.408 8.7 -12.4 20.9 21 4646 86 328.8 22.7
2006-11-17 00:04:45Z 21.413 8.3 -12.2 22 22 4646 86 341 11.7
2006-11-17 00:05:16Z 21.413 8.2 -12.5 21.6 22 4646 86 339.2 22.2
2006-11-17 00:06:53Z 21.413 8.5 -12.6 21 21 4876 97 300.8 8
2006-11-17 00:08:46Z 21.41 8.4 -12.2 21.9 22 4876 97 322.8 15.6
2006-11-17 00:08:51Z 21.41 8.4 -12.2 21.9 22 4876 97 330.3 5.3
2006-11-17 00:12:47Z 21.411 8.6 -12.2 21.5 22 5076 88 294.6 13
2006-11-17 00:14:40Z 21.415 8.6 -12.6 20.9 21 5076 88 335.6 17.8
2006-11-17 00:16:48Z 21.413 8.7 -12.4 21 21 5355 88 336.1 21.2
2006-11-17 00:20:49Z 21.413 8.6 -12.2 21.4 21 5355 88 334.7 17.6
2006-11-17 00:24:50Z 21.416 8.5 -12.6 20.9 21 5545 91 326.1 18.3
2006-11-17 00:28:51Z 21.417 8.8 -12.2 21.3 21 5204 82 318.4 17.9
2006-11-17 00:36:53Z 21.409 9 -12.6 20.3 20 5931 121 314.8 14.7
2006-11-17 00:37:46Z 21.408 9.3 -12.6 19.9 20 5931 121 302.1 27.9
2006-11-17 00:40:54Z 21.408 9.1 -12.6 20.1 20 5931 121 311.6 20.8
2006-11-17 00:44:55Z 21.408 8.9 -12.7 20.2 20 6287 128 306.6 25.5
2006-11-17 00:47:04Z 21.413 9.3 -12.6 20 20 6852 154 310.7 16
2006-11-17 00:48:29Z 21.413 9.2 -12.7 19.9 20 6852 154 306.6 16.6
2006-11-17 00:49:50Z 21.413 9.3 -12.6 19.8 20 6852 154 321.6 16.6
2006-11-17 00:51:11Z 21.412 9.6 -12.6 19.4 19 6632 121 324.6 19.7
2006-11-17 00:52:34Z 21.412 9.5 -12.6 19.7 20 6632 121 308.2 27.9
2006-11-17 00:52:57Z 21.412 9.6 -12.5 19.6 20 6632 121 303.5 22.5
2006-11-17 00:56:53Z 21.414 9 -12.9 19.7 20 6140 109 303.6 11.7
2006-11-17 00:56:58Z 21.415 9 -12.9 19.7 20 6140 109 322.1 19.7
2006-11-17 00:58:18Z 21.414 8.8 -12.9 20 20 6140 109 316.5 12.6
2006-11-17 00:59:38Z 21.414 8.9 -13 19.8 20 6140 109 305.4 24.5
2006-11-17 01:00:58Z 21.414 9.1 -12.7 20 20 6140 109 298.6 22.5
2006-11-17 01:00:59Z 21.414 9.1 -12.7 20 20 6140 109 302.6 19.3
2006-11-17 01:02:21Z 21.414 9.1 -12.8 19.7 20 6558 120 302.6 21.5
2006-11-17 01:05:00Z 21.429 8.6 -12.9 20.3 20 6558 120 300.5 19.1
2006-11-17 01:06:27Z 21.429 9.1 -12.8 19.8 20 7382 146 345.9 12.1
2006-11-17 01:07:53Z 21.426 8.7 -12.8 20.3 20 7382 146 312.8 19.3
2006-11-17 01:09:01Z 21.426 9.2 -12.9 19.6 20 7382 146 320.7 22
2006-11-17 01:09:19Z 21.426 9.1 -12.8 19.7 20 7382 146 316.1 15.8
2006-11-17 01:10:44Z 21.426 8.9 -13.4 19.1 19 7382 146 336 11.9
2006-11-17 01:12:16Z 21.429 9 -12.8 19.9 20 7056 126 313 14.8
2006-11-17 01:13:03Z 21.427 8.7 -12.6 20.7 21 7056 126 332.7 16.3
2006-11-17 01:17:04Z 21.427 8.6 -12.6 20.9 21 7546 142 315.5 21
2006-11-17 01:17:14Z 21.427 8.6 -12.6 20.9 21 7546 142 313.1 16.9
2006-11-17 01:18:34Z 21.426 8.9 -12.6 20.3 20 7546 142 312 17.4
2006-11-17 01:19:54Z 21.426 8.7 -12.6 20.8 21 7546 142 315.3 20.4
2006-11-17 01:21:14Z 21.426 9 -12.7 20.1 20 6925 122 304.3 17.6
2006-11-17 01:22:44Z 21.426 9.2 -12.6 20 20 6925 122 331.1 14.4
2006-11-17 01:25:06Z 21.426 9.2 -12.7 19.8 20 6925 122 319.4 14.9
2006-11-17 01:27:08Z 21.426 9.1 -12.6 20.2 20 6802 107 308.6 17.6
2006-11-17 01:28:33Z 21.426 9.4 -12.4 19.9 20 6802 107 321.1 15.6
2006-11-17 01:29:07Z 21.429 9.1 -12.2 20.8 21 6802 107 308.6 15.1
2006-11-17 01:29:57Z 21.43 8.9 -12.6 20.5 20 6802 107 305 21.5
2006-11-17 01:31:20Z 21.431 9.1 -12.7 20 20 6834 100 310.5 20.8
2006-11-17 01:32:45Z 21.43 9 -12.9 19.8 20 6834 100 298.6 21.2
2006-11-17 01:33:08Z 21.43 8.9 -12.9 19.8 20 6834 100 306.6 19.4
2006-11-17 01:34:19Z 21.43 9 -12.9 19.7 20 6834 100 314.5 18.9
2006-11-17 01:37:09Z 21.431 8.6 -13.1 20.1 20 6758 130 324.8 14.5
2006-11-17 01:38:12Z 21.431 9.2 -12.9 19.5 19 6758 130 308.4 18.3
2006-11-17 01:39:40Z 21.431 8.8 -12.7 20.4 20 6758 130 314.8 24.6
2006-11-17 01:41:07Z 21.431 9 -12.7 20.1 20 6594 119 299.9 16.3
2006-11-17 01:41:10Z 21.431 9 -12.7 20.1 20 6594 119 287.7 17.6
2006-11-17 01:42:40Z 21.431 9 -12.6 20.3 20 6594 119 316.5 16.9
2006-11-17 01:44:42Z 21.432 9.2 -12.6 20.1 20 6594 119 317.2 17
2006-11-17 01:45:11Z 21.432 9.2 -12.4 20.2 20 6594 119 318.1 19.2
2006-11-17 01:53:13Z 21.433 8.8 -12.6 20.5 21 7200 138 304.7 19.7
2006-11-17 01:57:15Z 21.433 9 -12.9 19.8 20 7769 137 302.3 19.9
2006-11-17 01:57:45Z 21.433 9 -12.7 20.1 20 7769 137 316.1 17.4
2006-11-17 01:59:06Z 21.432 9.1 -12.5 20.3 20 7769 137 306.3 24.9
2006-11-17 02:00:26Z 21.432 8.7 -11.8 22 22 7769 137 308.7 13.3
2006-11-17 02:01:16Z 21.432 8.7 -11.9 21.8 22 8427 174 313.5 14.8
2006-11-17 02:01:46Z 21.432 8.7 -11.9 21.9 22 8427 174 307.8 21.2
2006-11-17 02:03:09Z 21.434 8.4 -11.8 22.4 22 8427 174 323.8 19.7
2006-11-17 02:05:17Z 21.432 9.4 -12.1 20.6 21 8427 174 308.5 20.9
2006-11-17 02:06:48Z 21.431 9.4 -11.9 20.9 21 7893 158 298.6 22.3
2006-11-17 02:08:18Z 21.431 9.4 -11.8 21 21 7893 158 314.9 13.9
2006-11-17 02:09:18Z 21.432 9 -11.7 21.7 22 7893 158 300.3 19.7
2006-11-17 02:09:48Z 21.432 9.3 -11.8 21.2 21 7893 158 310.3 19.4
2006-11-17 02:11:17Z 21.433 9.4 -11.9 20.9 21 7594 176 299.6 19
2006-11-17 02:13:04Z 21.434 9.1 -11.9 21.2 21 7594 176 311.7 17.8
2006-11-17 02:13:19Z 21.434 9.1 -11.9 21.2 21 7594 176 314.8 28.3
2006-11-17 02:17:20Z 21.434 9.2 -12.1 20.8 21 8008 187 314.5 23.3
2006-11-17 02:18:28Z 21.434 9 -12.2 21 21 8008 187 302 19.2
2006-11-17 02:19:48Z 21.434 9.2 -12.2 20.7 21 8008 187 298 23.8
2006-11-17 02:21:09Z 21.434 8.8 -11.8 21.8 22 9246 280 295.3 20
2006-11-17 02:21:21Z 21.434 8.7 -11.9 21.8 22 9246 280 290.9 22.5
2006-11-17 02:22:30Z 21.436 8.7 -12 21.7 22 9246 280 314.2 26.3
2006-11-17 02:23:51Z 21.436 9.2 -12.4 20.3 20 9246 280 344.1 16.3
2006-11-17 02:25:22Z 21.437 8.5 -11.8 22.3 22 9246 280 306.1 16.9
2006-11-17 02:26:53Z 21.437 8.4 -12.6 21.1 21 8223 173 313.1 23.7
2006-11-17 02:28:12Z 21.435 8.7 -12.5 20.9 21 8223 173 301.2 17.6
2006-11-17 02:29:23Z 21.439 8.4 -11.6 22.8 23 8223 173 311.3 11.4
2006-11-17 02:29:33Z 21.439 8.4 -11.6 22.8 23 8223 173 296.5 14
2006-11-17 02:30:53Z 21.438 8.3 -11.8 22.6 23 8223 173 304.1 17
2006-11-17 02:32:17Z 21.436 8.4 -12.2 21.8 22 11099 308 306.1 20.5
2006-11-17 02:33:24Z 21.436 8.2 -11.9 22.7 23 11099 308 307.9 18.8
2006-11-17 02:36:48Z 21.438 8.2 -11.9 22.5 23 13147 352 306.3 14
2006-11-17 02:37:25Z 21.438 8.2 -12 22.5 22 13147 352 314.4 17.4
2006-11-17 02:38:28Z 21.436 8 -12.1 22.7 23 13147 352 303.6 18.9
2006-11-17 02:39:53Z 21.436 8.1 -11.9 22.8 23 13147 352 287 13.1
2006-11-17 02:41:24Z 21.436 8.2 -12.1 22.2 22 14132 375 321.7 17.4
2006-11-17 02:41:26Z 21.436 8.2 -12.1 22.2 22 14132 375 321.7 17.4
2006-11-17 02:41:29Z 21.436 8.2 -12.1 22.2 22 14132 375 300.3 25.6
2006-11-17 02:43:29Z 21.433 7.8 -12.2 22.6 23 14132 375 309.1 16.9
2006-11-17 02:45:27Z 21.433 7.8 -12.5 22.2 22 14132 375 297 21.5
2006-11-17 02:46:02Z 21.433 8.2 -12.6 21.5 22 14132 375 330.5 22.8
2006-11-17 02:47:28Z 21.434 7.7 -12.2 23 23 15388 388 304 22.7
2006-11-17 02:48:52Z 21.434 7.9 -12.6 21.9 22 15388 388 305.8 18.5
2006-11-17 02:49:28Z 21.434 7.8 -12.5 22.1 22 15388 388 301 22.6
2006-11-17 02:50:20Z 21.434 8 -12.2 22.3 22 15388 388 308.9 16.6
2006-11-17 02:52:22Z 21.431 7.7 -12.2 22.9 23 17785 421 307.1 12.2
2006-11-17 02:53:29Z 21.434 7.6 -12 23.4 23 17785 421 317.3 18.1
2006-11-17 02:56:34Z 21.436 7.3 -12.2 23.5 23 18323 428 300.7 17.2
2006-11-17 02:57:30Z 21.436 7.1 -12.6 23 23 18323 428 325.4 15.8
2006-11-17 02:57:58Z 21.435 7.2 -12.6 23 23 18323 428 324.5 22
2006-11-17 02:59:23Z 21.431 7.2 -12.9 22.3 22 18323 428 316 18.4
2006-11-17 03:00:48Z 21.431 7.2 -12.2 23.6 24 18323 428 322.6 17.6
2006-11-17 03:02:14Z 21.431 7.4 -12.6 22.6 23 20344 451 322.6 19.2
2006-11-17 03:05:32Z 21.436 7.2 -12.6 22.9 23 20344 451 325.1 10.3
2006-11-17 03:06:22Z 21.434 7.1 -12.7 22.9 23 21131 464 310.4 22.7
2006-11-17 03:07:48Z 21.434 7.6 -12.6 22.4 22 21131 464 302.7 12.8
2006-11-17 03:09:13Z 21.434 7.1 -12.4 23.3 23 21131 464 304.2 17.9
2006-11-17 03:09:33Z 21.434 7.1 -12.4 23.3 23 21131 464 310.4 15
2006-11-17 03:10:38Z 21.434 7.4 -12.7 22.4 22 21131 464 312.5 13.4
2006-11-17 03:12:01Z 21.435 7 -12.6 23.3 23 17994 396 313.6 14.4
2006-11-17 03:13:34Z 21.437 6.9 -12.7 23.3 23 17994 396 324.5 15.3
2006-11-17 03:16:16Z 21.437 6.8 -12.9 22.9 23 21200 492 333.2 17.6
2006-11-17 03:17:41Z 21.444 6.7 -12.9 23 23 21200 492 328.1 10.7
2006-11-17 03:19:05Z 21.441 6.9 -12.7 23.3 23 21200 492 317.3 14.4
2006-11-17 03:20:31Z 21.441 6.8 -12.7 23.3 23 21200 492 347 13.9
2006-11-17 03:21:36Z 21.441 6.6 -12.9 23.3 23 20995 520 331.1 12.2
2006-11-17 03:21:56Z 21.441 6.5 -12.9 23.5 23 20995 520 327 18.2
2006-11-17 03:25:09Z 21.44 6.6 -12.9 23.2 23 20995 520 316.5 18.7
2006-11-17 03:25:38Z 21.44 6.7 -13.1 22.8 23 20995 520 303.9 19.9
2006-11-17 03:26:35Z 21.441 6.7 -12.9 23 23 20624 496 325.5 18.6
2006-11-17 03:28:00Z 21.44 6.6 -12.8 23.4 23 20624 496 329.1 17.5
2006-11-17 03:29:26Z 21.44 6.7 -12.7 23.4 23 20624 496 332.1 20.1
2006-11-17 03:29:39Z 21.44 6.7 -12.7 23.4 23 20624 496 323.4 18.9
2006-11-17 03:30:51Z 21.441 6.7 -12.8 23.2 23 20624 496 327.6 18.6
2006-11-17 03:32:50Z 21.442 6.7 -13.1 22.9 23 20650 495 325.1 17.9
2006-11-17 03:33:40Z 21.442 6.7 -13 23 23 20650 495 336.8 16.6
2006-11-17 03:33:58Z 21.442 6.7 -12.9 23 23 20650 495 349.1 12
2006-11-17 03:35:23Z 21.443 6.6 -13 23.1 23 20650 495 321 11.5
2006-11-17 03:36:43Z 21.443 6.5 -13.2 22.9 23 20109 509 329.6 8.1
2006-11-17 03:37:41Z 21.443 6.6 -13.2 22.9 23 20109 509 313.3 18.1
2006-11-17 03:38:06Z 21.443 6.6 -13.2 22.9 23 20109 509 317.8 14.8
2006-11-17 03:39:33Z 21.443 6.9 -12.8 22.9 23 20109 509 308.8 15.1
2006-11-17 03:41:42Z 21.444 6.6 -12.9 23.4 23 18420 459 316.3 19.9
2006-11-17 03:44:04Z 21.444 6.8 -12.9 23 23 18420 459 312 18.9
2006-11-17 03:45:30Z 21.444 6.8 -13 22.7 23 18420 459 318.2 18.5
2006-11-17 03:45:43Z 21.444 6.8 -13 22.7 23 18420 459 307.1 15.5
2006-11-17 03:46:55Z 21.444 7.4 -13.2 21.4 21 18560 487 314.8 20.1
2006-11-17 03:48:21Z 21.443 7.3 -12.7 22.5 22 18560 487 315.1 16.6
2006-11-17 03:49:44Z 21.444 7 -12.8 22.8 23 18560 487 316 19.1
2006-11-17 03:49:46Z 21.444 7 -12.8 22.8 23 18560 487 317.1 17.6
2006-11-17 03:53:45Z 21.444 6.7 -12.9 23 23 16529 422 331.1 17.8
2006-11-17 03:54:30Z 21.444 6.7 -12.9 23 23 16529 422 319.5 15.5
2006-11-17 03:55:55Z 21.444 6.8 -13.1 22.7 23 16529 422 317.9 16.8
2006-11-17 03:57:21Z 21.445 6.9 -13.1 22.4 22 18711 499 327.5 16.8
2006-11-17 03:57:46Z 21.445 6.9 -13.1 22.4 22 18711 499 332.3 16.1
2006-11-17 03:58:46Z 21.445 6.8 -13.1 22.6 23 18711 499 326 16.1
2006-11-17 04:00:12Z 21.445 6.8 -13.1 22.6 23 18711 499 305.9 25.6
2006-11-17 04:01:47Z 21.445 7.2 -12.7 22.7 23 16510 418 323.9 18.6
2006-11-17 04:05:13Z 21.446 7.2 -12.7 22.8 23 16510 418 308.3 20.8
2006-11-17 04:05:48Z 21.446 7.3 -12.7 22.6 23 16510 418 323.5 19.2
2006-11-17 04:06:53Z 21.444 7.4 -12.7 22.5 22 16992 394 323.6 19.4
2006-11-17 04:08:18Z 21.444 7.3 -12.7 22.6 23 16992 394 295.8 16.6
2006-11-17 04:09:43Z 21.445 7 -12.7 23 23 16992 394 335 12.7
2006-11-17 04:09:49Z 21.445 7 -12.7 23 23 16992 394 328.8 18.7
2006-11-17 04:11:08Z 21.447 7 -12.9 22.6 23 18246 454 315.8 13.3
2006-11-17 04:13:50Z 21.445 6.6 -13.3 22.6 23 18246 454 318.2 18.4
2006-11-17 04:14:06Z 21.445 6.6 -13.3 22.6 23 18246 454 313.4 21.1
2006-11-17 04:15:32Z 21.445 6.9 -13.1 22.5 22 18246 454 303.3 17.5
2006-11-17 04:16:57Z 21.446 7.2 -12.7 22.6 23 17227 421 304.8 21.7
2006-11-17 04:17:51Z 21.446 7.3 -12.6 22.8 23 17227 421 313.2 15.3
2006-11-17 04:18:22Z 21.445 7.1 -12.6 23 23 17227 421 306.7 18.6
2006-11-17 04:19:47Z 21.445 7.1 -12.7 22.9 23 17227 421 310.6 19.8
2006-11-17 04:21:52Z 21.445 7.1 -12.7 22.9 23 17675 410 322 19.9
2006-11-17 04:23:54Z 21.446 7.6 -12.6 22.3 22 17675 410 316.7 10.9
2006-11-17 04:25:19Z 21.448 7.1 -12.6 23.1 23 17675 410 308 13.5
2006-11-17 04:25:53Z 21.448 7 -12.6 23.2 23 17675 410 309.1 15.4
2006-11-17 04:26:45Z 21.448 7 -12.7 23.1 23 17233 423 312.1 18.2
2006-11-17 04:28:15Z 21.448 7.3 -12.7 22.5 23 17233 423 312.3 18.2
2006-11-17 04:29:54Z 21.448 7.4 -12.7 22.5 22 17233 423 322.3 20.3
2006-11-17 04:30:20Z 21.445 7.6 -12.6 22.2 22 17233 423 316.2 22.2
2006-11-17 04:33:36Z 21.447 7.5 -12.6 22.5 23 14631 392 309.1 22.2
2006-11-17 04:33:55Z 21.447 7.6 -12.6 22.3 22 14631 392 316.7 21.8
2006-11-17 04:35:03Z 21.447 7.2 -12.7 22.7 23 14631 392 324.7 19.2
2006-11-17 04:36:25Z 21.448 6.9 -12.9 22.7 23 16724 441 321.8 19
2006-11-17 04:37:46Z 21.448 6.9 -13 22.6 23 16724 441 327.1 18.3
2006-11-17 04:38:39Z 21.449 6.9 -13.1 22.3 22 16724 441 328.8 13.1
2006-11-17 04:39:11Z 21.449 6.8 -13.1 22.5 23 16724 441 318.1 16.9
2006-11-17 04:41:15Z 21.448 7.1 -12.9 22.4 22 16951 469 318.6 18
2006-11-17 04:41:57Z 21.45 7 -12.8 22.8 23 16951 469 322.8 15.1
2006-11-17 04:42:41Z 21.45 6.8 -12.8 23 23 16951 469 308.7 10.6
2006-11-17 04:44:07Z 21.449 6.6 -12.9 23.2 23 16951 469 321.3 11.4
2006-11-17 04:45:38Z 21.449 6.7 -13.2 22.5 22 16951 469 317.3 12.5
2006-11-17 04:45:58Z 21.449 6.6 -13.2 22.7 23 16951 469 320.7 16.8
2006-11-17 04:47:43Z 21.448 6.6 -13.2 22.8 23 16942 443 328.8 17.6
2006-11-17 04:49:59Z 21.448 6.6 -13.2 22.9 23 16942 443 308.5 15.7
2006-11-17 04:52:21Z 21.446 6.6 -13.2 22.7 23 16904 448 315.5 15.6
2006-11-17 04:53:47Z 21.446 6.6 -13 23.2 23 16904 448 314.1 19.8
2006-11-17 04:54:00Z 21.446 6.6 -13 23.2 23 16904 448 321.7 18.7
2006-11-17 04:55:07Z 21.446 6.7 -13.1 22.7 23 16904 448 316.5 19.3
2006-11-17 04:56:27Z 21.449 6.5 -13 23.3 23 16477 449 325.1 12.6
2006-11-17 04:57:57Z 21.45 6.6 -12.9 23.2 23 16477 449 325.4 16.1
2006-11-17 04:58:01Z 21.45 6.6 -12.9 23.2 23 16477 449 329.9 13.8
2006-11-17 05:02:03Z 21.449 6.7 -13 22.9 23 17156 427 308.2 22.8
2006-11-17 05:02:09Z 21.449 6.7 -13 22.9 23 17156 427 327 23.4
2006-11-17 05:03:29Z 21.449 7.3 -12.4 23.1 23 17156 427 314.3 20.2
2006-11-17 05:04:47Z 21.449 6.9 -12.2 24.1 24 17156 427 306.5 17.9
2006-11-17 05:06:04Z 21.449 6.7 -12.5 23.8 24 17156 427 325.9 17.6
2006-11-17 05:06:07Z 21.449 6.6 -12.7 23.7 24 16752 441 319.6 18.5
2006-11-17 05:07:35Z 21.449 6.6 -13 23.2 23 16752 441 319.6 17.1
2006-11-17 05:10:06Z 21.456 6.6 -13.1 23 23 16752 441 323.6 19.2
2006-11-17 05:12:11Z 21.452 6.6 -12.9 23.2 23 15705 461 298.1 17.7
2006-11-17 05:13:31Z 21.455 6.8 -12.9 22.8 23 15705 461 329.2 14.6
2006-11-17 05:14:51Z 21.455 6.8 -12.7 23.2 23 15705 461 325.6 6.4
2006-11-17 05:16:12Z 21.452 6.9 -12.6 23.4 23 15961 397 315.1 14.3
2006-11-17 05:17:36Z 21.453 7 -12.6 23.2 23 15961 397 316.2 13.2
2006-11-17 05:18:08Z 21.453 7.1 -12.7 23 23 15961 397 316.8 19.8
2006-11-17 05:22:09Z 21.452 6.6 -12.9 23.3 23 15914 427 315 15.6
2006-11-17 05:26:10Z 21.454 6.6 -12.9 23.2 23 15767 445 324.7 14.5
2006-11-17 05:30:11Z 21.452 6.6 -12.9 23.2 23 15767 445 323.5 9.2
2006-11-17 05:31:04Z 21.451 6.9 -12.7 23.1 23 15767 445 291.4 1
2006-11-17 05:34:13Z 21.452 6.9 -12.6 23.4 23 16590 436 296.3 12.1
2006-11-17 05:38:14Z 21.451 6.8 -12.7 23.2 23 14574 432 308.9 11.4
2006-11-17 05:46:16Z 21.451 6.6 -12.9 23.3 23 15268 469 311.9 11.3
2006-11-17 05:50:17Z 21.451 6.6 -12.8 23.5 23 15268 469 328.1 19.2
2006-11-17 05:54:18Z 21.447 6.8 -12.1 24.4 24 15556 438 308.5 11.5
2006-11-17 05:58:19Z 21.449 7 -12.6 23.3 23 19151 448 339.1 15.6
2006-11-17 06:02:20Z 21.448 7.4 -12.1 23.6 24 20014 487 332.8 13.2
2006-11-17 06:06:21Z 21.447 7.1 -12.6 23.2 23 18489 509 300.5 9.7
2006-11-17 06:08:02Z 21.447 7 -12.6 23.2 23 18489 509 320.8 13.3
2006-11-17 06:09:28Z 21.449 6.8 -12.7 23.3 23 18489 509 308.7 7.5
2006-11-17 06:10:53Z 21.45 7.2 -12.6 22.9 23 18489 509 323.3 20.6
2006-11-17 06:12:19Z 21.448 6.9 -12.5 23.6 24 18220 435 358.2 6.9
2006-11-17 06:13:45Z 21.448 6.8 -12.6 23.6 24 18220 435 323 14.7
2006-11-17 06:14:24Z 21.449 6.8 -12.6 23.5 24 18220 435 319.7 16.8
2006-11-17 06:18:49Z 21.446 6.9 -12.4 23.7 24 18899 482 351 8
2006-11-17 06:20:13Z 21.446 6.7 -12.7 23.4 23 18899 482 345.4 16.4
2006-11-17 06:21:38Z 21.446 7.2 -12.6 22.9 23 19714 462 336.8 11.4
2006-11-17 06:22:26Z 21.447 7.3 -12.4 23 23 19714 462 343.4 10.4
2006-11-17 06:23:04Z 21.444 7.1 -12.2 23.9 24 19714 462 325.8 15.9
2006-11-17 06:24:41Z 21.446 7.1 -12 24.2 24 19714 462 331.3 17.5
2006-11-17 06:28:54Z 21.446 7.2 -12.1 23.9 24 20200 483 340.1 10.8
2006-11-17 06:30:20Z 21.446 7 -12.2 24 24 20200 483 317.3 8.2
2006-11-17 06:30:28Z 21.446 7 -12.2 24 24 20200 483 356.1 5.5
2006-11-17 06:30:54Z 21.446 7 -12.2 24 24 20200 483 330 15.2
2006-11-17 06:31:45Z 21.446 7.1 -12.1 24.2 24 21085 495 347 14.5
2006-11-17 06:33:10Z 21.445 6.9 -12.2 24.1 24 21085 495 356.6 10.5
2006-11-17 06:34:46Z 21.445 6.9 -12.2 24.2 24 21085 495 342.5 2.6
2006-11-17 06:37:36Z 21.444 6.8 -12.5 23.8 24 21169 510 355.1 6
2006-11-17 06:38:30Z 21.444 6.9 -12.4 23.6 24 21169 510 336.3 13.3
2006-11-17 06:39:01Z 21.444 7.2 -12.2 23.8 24 21169 510 322.5 11.7
2006-11-17 06:40:23Z 21.444 7.3 -11.8 24.3 24 21169 510 15 5.6
2006-11-17 06:41:45Z 21.442 6.8 -11.8 25 25 22450 513 344.1 6.4
2006-11-17 06:42:31Z 21.444 6.9 -11.8 24.9 25 22450 513 331.6 15.7
2006-11-17 06:43:11Z 21.442 7.1 -11.7 24.8 25 22450 513 345 11.3
2006-11-17 06:46:32Z 21.443 7 -11.8 24.7 25 22135 558 1.8 17.4
2006-11-17 06:47:51Z 21.444 7 -11.9 24.6 25 22135 558 327.6 21.5
2006-11-17 06:49:17Z 21.444 6.8 -12 24.6 25 22135 558 10.7 2.3
2006-11-17 06:50:33Z 21.444 6.8 -12.1 24.5 25 22135 558 1.2 9
2006-11-17 06:50:41Z 21.444 6.8 -12.1 24.5 25 22135 558 328.3 10.3
2006-11-17 06:52:06Z 21.445 6.9 -12.2 24.1 24 21932 525 354.5 15.3
2006-11-17 06:53:43Z 21.445 6.6 -12.2 24.6 25 21932 525 340.1 9.9
2006-11-17 06:54:34Z 21.445 6.6 -12.4 24.1 24 21932 525 343.8 6.7
2006-11-17 06:57:27Z 21.444 6.7 -12.1 24.7 25 21091 492 354.6 15.4
2006-11-17 06:58:36Z 21.444 6.6 -12.1 24.9 25 21091 492 329 7.7
2006-11-17 06:58:48Z 21.444 6.6 -12.1 24.9 25 21091 492 26 5.6
2006-11-17 07:00:09Z 21.444 6.7 -12.1 24.8 25 21091 492 336.9 11.3
2006-11-17 07:01:30Z 21.443 6.6 -12.1 24.9 25 20850 540 342.8 9.4
2006-11-17 07:02:37Z 21.444 6.7 -12.1 24.8 25 20850 540 348.4 9.9
2006-11-17 07:02:53Z 21.444 6.7 -12.1 24.8 25 20850 540 300.1 0.5
2006-11-17 07:06:38Z 21.444 6.6 -12.2 24.7 25 20752 527 353 8.7
2006-11-17 07:07:10Z 21.443 6.5 -12.2 24.8 25 20752 527 306.5 2.2
2006-11-17 07:08:36Z 21.443 6.5 -12.4 24.3 24 20752 527 3.5 4.1
2006-11-17 07:09:58Z 21.443 6.6 -12.1 24.8 25 20752 527 348.3 11.7
2006-11-17 07:10:39Z 21.443 6.6 -12 25 25 20752 527 351.1 7.5
2006-11-17 07:11:17Z 21.442 6.6 -12.1 25 25 21218 490 15.6 3.6
2006-11-17 07:12:42Z 21.441 6.6 -12.1 24.9 25 21218 490 341.5 9.1
2006-11-17 07:14:28Z 21.443 6.7 -12 24.9 25 21218 490 291.9 11.9
2006-11-17 07:14:40Z 21.443 6.7 -12 24.9 25 21218 490 299.8 3.3
2006-11-17 07:15:44Z 21.443 6.7 -11.8 25.3 25 21218 490 14.9 5.4
2006-11-17 07:17:01Z 21.443 6.7 -11.8 25.3 25 21644 531 328.8 12.5
2006-11-17 07:18:17Z 21.443 6.7 -11.8 25.3 25 21644 531 354.1 16.1
2006-11-17 07:18:41Z 21.443 6.7 -11.8 25.3 25 21644 531 316.1 7.4
2006-11-17 07:19:31Z 21.443 6.7 -11.8 25.3 25 21644 531 2.3 10.5
2006-11-17 07:22:42Z 21.442 6.7 -11.8 25.3 25 21404 501 31.2 5.2
2006-11-17 07:23:37Z 21.442 6.7 -11.8 25.3 25 21404 501 1.2 13.6
2006-11-17 07:25:09Z 21.442 6.7 -11.8 25.3 25 21404 501 355.5 15.7
2006-11-17 07:26:35Z 21.442 6.7 -11.8 25.3 25 21666 542 9 5.3
2006-11-17 07:26:43Z 21.442 6.7 -11.8 25.3 25 21666 542 25.1 15.8
2006-11-17 07:28:05Z 21.443 6.7 -11.8 25.3 25 21666 542 48.8 9.1
2006-11-17 07:30:11Z 21.443 6.6 -13.8 21.6 22 21666 542 1.5 13.4
2006-11-17 07:30:44Z 21.443 6.6 -13.8 21.7 22 21666 542 73.5 5.3
2006-11-17 07:34:45Z 21.441 6.7 -13.9 21.3 21 21137 569 354.8 8.9
2006-11-17 07:36:51Z 21.441 6.6 -14 21.3 21 19973 513 47.6 2.8
2006-11-17 07:38:46Z 21.441 6.6 -13.8 21.7 22 19973 513 23.1 2.8
2006-11-17 07:40:11Z 21.442 6.6 -13.9 21.4 21 19973 513 352.6 8.7
2006-11-17 07:42:47Z 21.443 6.7 -13.8 21.4 21 20446 532 340.6 10.7
2006-11-17 07:43:26Z 21.442 6.8 -13.7 21.4 21 20446 532 34.3 8.4
2006-11-17 07:46:41Z 21.442 6.8 -13.8 21.3 21 20725 505 5 5.7
2006-11-17 07:46:48Z 21.442 6.8 -13.8 21.3 21 20725 505 8.6 6.2
2006-11-17 07:49:55Z 21.442 6.8 -13.8 21.3 21 20725 505 8.3 10.2
2006-11-17 07:50:49Z 21.441 6.6 -13.9 21.5 21 20725 505 339.6 7.1
2006-11-17 07:54:08Z 21.442 6.7 -12.9 23 23 20120 502 332.3 17.2
2006-11-17 07:54:50Z 21.442 6.6 -12.7 23.6 24 20120 502 327.1 6.6
2006-11-17 07:55:33Z 21.442 6.9 -12.7 23.3 23 20120 502 322 11
2006-11-17 07:58:48Z 21.44 7.1 -12.6 23.1 23 20109 472 46 0.2
2006-11-17 07:58:51Z 21.44 7.1 -12.6 23.1 23 20109 472 3.9 6.6
2006-11-17 08:00:14Z 21.44 7.4 -12.6 22.7 23 20109 472 358 9.3
2006-11-17 08:01:55Z 21.44 7.4 -12.6 22.5 22 18288 359 322.3 10.9
2006-11-17 08:02:53Z 21.439 7.1 -12.6 23 23 18288 359 315.3 8.6
2006-11-17 08:06:54Z 21.441 7.2 -12.5 23.1 23 18808 400 37.5 2.3
2006-11-17 08:10:55Z 21.444 7.3 -12.4 23.1 23 18808 400 346.2 11.2
2006-11-17 08:14:52Z 21.443 7.4 -12.5 22.7 23 18808 400 5.9 13.8
2006-11-17 08:14:56Z 21.443 7.4 -12.5 22.7 23 18808 400 1.1 13.2
2006-11-17 08:16:18Z 21.441 7.4 -12.6 22.6 23 22530 384 357.6 17.8
2006-11-17 08:17:43Z 21.443 7.3 -12.6 22.8 23 22530 384 10.9 3.5
2006-11-17 08:18:57Z 21.443 7.5 -12.5 22.6 23 22530 384 13.1 9.7
2006-11-17 08:19:09Z 21.443 7.5 -12.5 22.6 23 22530 384 351.3 10.8
2006-11-17 08:20:36Z 21.443 7.6 -12.6 22.3 22 22530 384 356.9 14.8
2006-11-17 08:22:58Z 21.443 7.5 -12.6 22.4 22 25388 407 334.3 14.2
2006-11-17 08:23:43Z 21.443 7.5 -12.6 22.4 22 25388 407 337.7 9.4
2006-11-17 08:25:02Z 21.443 7.6 -12.6 22.4 22 25388 407 347.9 7.5
2006-11-17 08:26:24Z 21.443 7.4 -12.7 22.5 22 24352 366 0 11
2006-11-17 08:26:59Z 21.443 7.6 -12.7 22.2 22 24352 366 353.3 9.4
2006-11-17 08:27:39Z 21.443 7.5 -12.7 22.3 22 24352 366 5.3 5.5
2006-11-17 08:27:44Z 21.443 7.5 -12.7 22.3 22 24352 366 353.3 10.7
2006-11-17 08:29:09Z 21.443 7.5 -12.7 22.2 22 24352 366 9.8 17.2
2006-11-17 08:32:04Z 21.443 7.5 -12.7 22.3 22 31875 416 354.5 15
2006-11-17 08:33:24Z 21.441 7.6 -12.8 21.9 22 31875 416 1.2 17.9
2006-11-17 08:34:43Z 21.441 7.6 -12.8 21.9 22 31875 416 355.1 13.2
2006-11-17 08:35:01Z 21.441 7.6 -12.8 21.9 22 31875 416 359.7 13.7
2006-11-17 08:36:01Z 21.441 7.5 -12.9 21.9 22 31875 416 13.4 18.4
2006-11-17 08:37:25Z 21.441 7.5 -12.8 22 22 28413 384 340.5 13.1
2006-11-17 08:39:03Z 21.446 7.5 -12.8 22 22 28413 384 10.6 14.6
2006-11-17 08:41:36Z 21.443 7.5 -12.8 22 22 26206 357 357.4 8.9
2006-11-17 08:43:01Z 21.443 7.5 -12.7 22.2 22 26206 357 359.4 18.4
2006-11-17 08:43:04Z 21.443 7.5 -12.7 22.2 22 26206 357 2.9 16.9
2006-11-17 08:44:27Z 21.443 7.6 -12.8 21.9 22 26206 357 0.6 16.4
2006-11-17 08:45:52Z 21.443 7.2 -12.9 22.3 22 26206 357 5.2 13.3
2006-11-17 08:47:05Z 21.443 7.5 -12.8 22 22 28069 376 2.8 18.8
2006-11-17 08:47:22Z 21.443 7.6 -12.7 22 22 28069 376 329.1 14.3
2006-11-17 08:51:06Z 21.445 7.5 -12.8 22 22 30380 406 340 15.7
2006-11-17 08:52:00Z 21.445 7.3 -12.9 22.2 22 30380 406 11.6 8.9
2006-11-17 08:53:26Z 21.445 7.3 -12.9 22.2 22 30380 406 6.8 10.3
2006-11-17 08:54:52Z 21.444 7.3 -12.9 22.1 22 30380 406 348.1 17.6
2006-11-17 08:55:07Z 21.444 7.3 -12.9 22.2 22 30380 406 4.3 19.7
2006-11-17 08:56:17Z 21.444 7.2 -12.9 22.3 22 23835 377 20.1 16.5
2006-11-17 08:57:53Z 21.444 7.2 -12.8 22.5 23 23835 377 359.7 19.2
2006-11-17 08:59:08Z 21.448 7.2 -12.8 22.5 23 23835 377 357.6 11.1
2006-11-17 09:02:40Z 21.452 7 -12.8 22.8 23 27781 411 352 14.3
2006-11-17 09:03:09Z 21.45 7 -12.8 22.8 23 27781 411 17.3 5.8
2006-11-17 09:04:05Z 21.45 7.1 -12.8 22.6 23 27781 411 18.5 13
2006-11-17 09:05:30Z 21.45 7.2 -12.7 22.6 23 27781 411 3.4 17.5
2006-11-17 09:06:57Z 21.444 7.3 -12.7 22.6 23 31856 460 341.7 12
2006-11-17 09:07:10Z 21.444 7.3 -12.7 22.6 23 31856 460 5.1 16.6
2006-11-17 09:08:23Z 21.45 7.2 -12.6 22.8 23 31856 460 0.3 14.1
2006-11-17 09:12:58Z 21.451 7 -12.8 22.8 23 32484 456 342.8 6.7
2006-11-17 09:14:22Z 21.449 7 -12.9 22.7 23 32484 456 3 14.1
2006-11-17 09:15:12Z 21.449 7.1 -12.8 22.6 23 32484 456 35.9 20.4
2006-11-17 09:15:46Z 21.449 7.2 -12.7 22.8 23 32484 456 355.1 20.4
2006-11-17 09:17:12Z 21.449 7.3 -12.7 22.6 23 32566 477 14.2 14.6
2006-11-17 09:18:38Z 21.449 7.2 -12.6 22.8 23 32566 477 19.8 9.7
2006-11-17 09:23:07Z 21.446 7.2 -12.7 22.7 23 33887 506 1.5 15.1
2006-11-17 09:23:14Z 21.446 7.2 -12.7 22.7 23 33887 506 14.5 14.8
2006-11-17 09:24:32Z 21.453 7.2 -12.7 22.7 23 33887 506 4.1 20.3
2006-11-17 09:25:56Z 21.454 7.2 -12.7 22.6 23 33887 506 35.6 8.7
2006-11-17 09:27:21Z 21.454 7.2 -12.7 22.7 23 35350 478 21.7 14.4
2006-11-17 09:28:53Z 21.455 7.3 -12.7 22.5 23 35350 478 6.3 12.2
2006-11-17 09:30:56Z 21.455 7.3 -12.7 22.5 22 35350 478 354.3 20.4
2006-11-17 09:31:16Z 21.455 7.3 -12.7 22.5 22 39877 534 14.9 16.8
2006-11-17 09:32:22Z 21.455 7.3 -12.9 22.1 22 39877 534 2.7 9.9
2006-11-17 09:33:47Z 21.455 7.2 -13 22.1 22 39877 534 357 16.3
2006-11-17 09:35:11Z 21.456 7.3 -13.1 21.9 22 39877 534 356.1 16.3
2006-11-17 09:36:37Z 21.456 7.1 -12.9 22.5 22 39397 526 350.8 11.7
2006-11-17 09:38:49Z 21.452 7.4 -12.9 22 22 39397 526 12.7 14.6
2006-11-17 09:39:18Z 21.452 7.4 -12.9 22 22 39397 526 34.7 0.4
2006-11-17 09:39:26Z 21.452 7.4 -12.9 22 22 39397 526 27.5 11.8
2006-11-17 09:40:51Z 21.452 7.2 -13.1 22 22 39397 526 350.1 10.8
2006-11-17 09:42:17Z 21.458 7.2 -12.9 22.2 22 39385 538 9.3 25.1
2006-11-17 09:43:19Z 21.458 7.2 -12.9 22.3 22 39385 538 4.8 10
2006-11-17 09:43:42Z 21.458 7.1 -12.9 22.4 22 39385 538 3.9 20.2
2006-11-17 09:45:11Z 21.455 7.1 -12.9 22.4 22 39385 538 8.8 18.8
2006-11-17 09:47:06Z 21.457 7.2 -12.9 22.2 22 41687 554 6.9 8.3
2006-11-17 09:47:21Z 21.457 7.2 -12.9 22.4 22 41687 554 12.6 15.5
2006-11-17 09:48:30Z 21.457 7.2 -12.7 22.7 23 41687 554 11.6 12.9
2006-11-17 09:49:51Z 21.457 7.3 -12.8 22.3 22 41687 554 8.8 13.3
2006-11-17 09:51:13Z 21.457 7.2 -12.9 22.3 22 45779 593 10.1 11.7
2006-11-17 09:51:22Z 21.457 7.2 -12.9 22.3 22 45779 593 37.9 11.5
2006-11-17 09:54:43Z 21.462 7.4 -12.8 22.2 22 45779 593 1.7 13.1
2006-11-17 09:55:23Z 21.462 7.4 -12.9 22.1 22 45779 593 31.5 11.7
2006-11-17 09:57:07Z 21.462 7.4 -12.9 21.9 22 44715 579 354.4 20.7
2006-11-17 09:58:27Z 21.462 7.5 -13.2 21.4 21 44715 579 16.2 14.7
2006-11-17 09:59:24Z 21.459 7.5 -13 21.7 22 44715 579 342.1 1.5
2006-11-17 09:59:45Z 21.459 7.5 -13 21.7 22 44715 579 353.1 11.1
2006-11-17 10:01:06Z 21.459 7.4 -13.1 21.7 22 49584 666 359.7 11.4
2006-11-17 10:02:29Z 21.458 7.3 -13.1 21.9 22 49584 666 12.8 11.2
2006-11-17 10:03:25Z 21.457 7 -12.9 22.7 23 49584 666 37.1 14.8
2006-11-17 10:05:32Z 21.456 7.2 -12.8 22.4 22 49584 666 15.3 6.4
2006-11-17 10:06:51Z 21.456 7.1 -12.9 22.5 22 51633 683 10.9 17.1
2006-11-17 10:07:26Z 21.456 7.1 -12.9 22.5 22 51633 683 353.7 20.8
2006-11-17 10:08:15Z 21.456 7.1 -12.8 22.6 23 51633 683 29.9 7.1
2006-11-17 10:09:33Z 21.456 7.1 -12.9 22.5 22 51633 683 34.6 17.9
2006-11-17 10:09:41Z 21.456 7.1 -12.8 22.7 23 51633 683 2.8 15.2
2006-11-17 10:11:06Z 21.458 7 -12.7 23 23 51633 683 23.6 13.8
2006-11-17 10:11:27Z 21.458 7.1 -12.7 23 23 51633 683 357.8 16.1
2006-11-17 10:12:35Z 21.455 7.1 -12.7 23 23 51633 683 0.4 14.4
2006-11-17 10:14:59Z 21.453 7 -12.8 22.8 23 51633 683 28.1 13.9
2006-11-17 10:15:28Z 21.453 7 -12.8 22.8 23 51633 683 40.1 12.5
2006-11-17 10:16:56Z 21.455 6.9 -12.8 22.9 23 47613 632 13.6 19
2006-11-17 10:18:20Z 21.456 7 -12.9 22.7 23 47613 632 22.5 19.1
2006-11-17 10:19:00Z 21.459 6.9 -12.9 22.7 23 47613 632 2.2 16
2006-11-17 10:19:29Z 21.459 6.9 -12.9 22.7 23 47613 632 4.8 7.9
2006-11-17 10:19:45Z 21.459 6.9 -12.9 22.7 23 47613 632 5.8 19.4
2006-11-17 10:21:12Z 21.459 6.9 -12.9 22.7 23 47665 661 23.5 15.2
2006-11-17 10:22:36Z 21.459 6.9 -12.9 22.7 23 47665 661 17.8 8.1
2006-11-17 10:23:30Z 21.459 6.9 -12.9 22.8 23 47665 661 17.7 16.9
2006-11-17 10:25:29Z 21.454 6.9 -12.9 22.8 23 47665 661 38.5 12
2006-11-17 10:26:54Z 21.454 6.9 -12.9 22.7 23 49033 697 17.6 19
2006-11-17 10:27:14Z 21.456 6.8 -12.9 22.9 23 49033 697 16.6 16.6
2006-11-17 10:27:31Z 21.456 6.8 -12.9 22.9 23 49033 697 13.6 15.6
2006-11-17 10:28:18Z 21.456 6.8 -12.9 22.9 23 49033 697 19.1 19.9
2006-11-17 10:29:44Z 21.455 6.8 -12.9 22.8 23 49033 697 13.2 15.3
2006-11-17 10:30:09Z 21.455 6.9 -12.9 22.7 23 49033 697 19.4 16
2006-11-17 10:31:10Z 21.455 6.8 -12.9 22.9 23 50550 694 13.8 16.9
2006-11-17 10:31:16Z 21.455 6.8 -12.9 22.9 23 50550 694 3.1 13.4
2006-11-17 10:35:17Z 21.454 6.7 -12.9 23 23 50550 694 11.4 13.1
2006-11-17 10:35:23Z 21.454 6.8 -12.9 22.8 23 50550 694 11.9 19.7
2006-11-17 10:35:33Z 21.454 6.8 -12.9 22.8 23 50550 694 346.7 11
2006-11-17 10:36:48Z 21.454 6.9 -12.9 22.7 23 51732 706 19.1 16.5
2006-11-17 10:38:12Z 21.454 6.8 -12.9 22.8 23 51732 706 16.3 15.3
2006-11-17 10:39:19Z 21.454 6.8 -12.9 22.8 23 51732 706 16.6 18.4
2006-11-17 10:39:34Z 21.454 6.8 -12.9 22.8 23 51732 706 19.6 18.6
2006-11-17 10:39:43Z 21.454 6.8 -12.9 22.8 23 51732 706 24.4 20.1
2006-11-17 10:41:47Z 21.456 6.8 -12.9 22.9 23 52414 739 13.6 6.1
2006-11-17 10:43:20Z 21.454 6.6 -13.2 22.7 23 52414 739 21.4 17.4
2006-11-17 10:43:35Z 21.454 6.6 -13.3 22.6 23 52414 739 22.3 19.4
2006-11-17 10:46:34Z 21.454 6.7 -12.8 23.3 23 52767 720 14.5 14.6
2006-11-17 10:47:22Z 21.452 6.7 -12.8 23.2 23 52767 720 21.2 10.8
2006-11-17 10:47:59Z 21.452 6.8 -12.8 23.1 23 52767 720 10.2 15.4
2006-11-17 10:49:18Z 21.452 6.7 -12.9 23.2 23 52767 720 25.5 17.9
2006-11-17 10:50:37Z 21.454 6.9 -12.9 22.8 23 52767 720 32.2 11.5
2006-11-17 10:51:28Z 21.456 6.8 -12.9 22.9 23 52829 716 35.8 16.9
2006-11-17 10:51:37Z 21.456 6.8 -12.9 22.9 23 52829 716 23.1 12
2006-11-17 10:52:07Z 21.456 6.8 -12.9 23 23 52829 716 30.6 21.3
2006-11-17 10:55:29Z 21.456 6.9 -12.9 22.7 23 52829 716 22.9 19.4
2006-11-17 10:55:38Z 21.456 6.8 -12.9 22.8 23 52829 716 30.8 14
2006-11-17 10:56:40Z 21.456 7 -12.9 22.6 23 51294 725 19.5 21.6
2006-11-17 10:58:06Z 21.456 7 -12.9 22.6 23 51294 725 16.6 16.7
2006-11-17 10:59:28Z 21.456 6.8 -13 22.8 23 51294 725 19.8 15.6
2006-11-17 10:59:39Z 21.456 6.8 -13 22.8 23 51294 725 25.3 23.1
2006-11-17 11:00:48Z 21.456 6.8 -13.1 22.6 23 51294 725 31.7 15.8
2006-11-17 11:01:13Z 21.456 6.8 -13.1 22.6 23 51634 695 15.1 20.4
2006-11-17 11:02:07Z 21.456 6.7 -13.1 22.7 23 51634 695 32.6 18.7
2006-11-17 11:02:14Z 21.456 6.7 -13.1 22.7 23 51634 695 31.8 20
2006-11-17 11:03:41Z 21.456 6.7 -13.2 22.6 23 51634 695 19.3 23.2
2006-11-17 11:06:08Z 21.455 6.7 -13.2 22.5 22 47374 686 6.7 12.5
2006-11-17 11:06:46Z 21.455 6.7 -13.2 22.5 22 47374 686 33.1 13.7
2006-11-17 11:07:42Z 21.455 6.6 -13.3 22.6 23 47374 686 8.1 18.3
2006-11-17 11:08:09Z 21.455 6.7 -13.3 22.4 22 47374 686 27 17.7
2006-11-17 11:09:32Z 21.455 6.4 -13.6 22.3 22 47374 686 27.7 18.2
2006-11-17 11:10:56Z 21.455 6.3 -13.6 22.6 23 47374 686 24.3 18.6
2006-11-17 11:11:43Z 21.455 6.3 -13.5 22.7 23 46364 692 20.2 18.4
2006-11-17 11:12:21Z 21.455 6.4 -13.5 22.5 22 46364 692 19.3 18.4
2006-11-17 11:13:51Z 21.455 6.2 -13.4 23 23 46364 692 35.4 11.5
2006-11-17 11:14:23Z 21.455 6.3 -13.3 23 23 46364 692 24.3 21.2
2006-11-17 11:15:44Z 21.455 6.4 -13.3 22.9 23 46364 692 30 21.4
2006-11-17 11:15:46Z 21.455 6.4 -13.3 22.9 23 46364 692 13.4 21.6
2006-11-17 11:16:52Z 21.455 6.4 -13.3 22.7 23 44710 666 3.6 16.9
2006-11-17 11:17:07Z 21.455 6.4 -13.3 22.7 23 44710 666 36.6 18.7
2006-11-17 11:17:52Z 21.455 6.6 -13.3 22.6 23 44710 666 22.8 19.9
2006-11-17 11:18:31Z 21.455 6.4 -13.3 22.7 23 44710 666 36.9 20.9
2006-11-17 11:19:45Z 21.456 6.3 -13.3 23 23 44710 666 25 18.7
2006-11-17 11:20:21Z 21.456 6.3 -13.3 23 23 44710 666 26.6 20
2006-11-17 11:21:53Z 21.456 6.4 -13.3 22.7 23 44341 635 29.8 13.5
2006-11-17 11:23:47Z 21.455 6.5 -13.3 22.6 23 44341 635 27.8 23.7
2006-11-17 11:25:54Z 21.455 6.4 -13.3 22.8 23 44341 635 20.3 16.6
2006-11-17 11:29:55Z 21.457 6.4 -13.3 22.7 23 43919 640 24.3 20.3
2006-11-17 11:31:49Z 21.456 6.7 -13.4 22.3 22 42337 558 25.8 18.1
2006-11-17 11:33:56Z 21.456 6.8 -13.4 22.1 22 42337 558 29 22.7
2006-11-17 11:35:50Z 21.456 6.6 -13.4 22.4 22 42337 558 24.6 23.3
2006-11-17 11:38:24Z 21.456 6.7 -13.6 21.9 22 40898 592 49 18.6
2006-11-17 11:39:51Z 21.456 6.6 -13.8 21.6 22 40898 592 36.2 23
2006-11-17 11:42:26Z 21.456 6.5 -13.9 21.5 22 35230 527 18.9 11.8
2006-11-17 11:43:52Z 21.456 6.6 -13.9 21.5 21 35230 527 38 19.4
2006-11-17 11:46:28Z 21.455 6.6 -14.2 21 21 31910 486 19.5 20.3
2006-11-17 11:47:53Z 21.456 6.8 -14.3 20.5 20 31910 486 23.9 20.3
2006-11-17 11:50:29Z 21.456 6.6 -14.8 19.9 20 31910 486 359.7 17.6
2006-11-17 11:51:54Z 21.457 6.6 -15.2 19.4 19 15503 283 15.3 21.2
2006-11-17 11:54:30Z 21.455 6.7 -15.5 18.6 19 15503 283 26.6 22.7
2006-11-17 11:54:52Z 21.455 6.7 -15.5 18.6 19 15503 283 18.2 22.3
2006-11-17 11:55:55Z 21.455 6.6 -15.6 18.6 19 15503 283 17.3 19.7
2006-11-17 11:56:16Z 21.46 6.6 -15.7 18.5 19 11871 233 16.8 18.3
2006-11-17 11:57:36Z 21.459 6.7 -15.8 18.2 18 11871 233 7.5 9.7
2006-11-17 11:58:31Z 21.459 6.7 -16.1 17.8 18 11871 233 8.3 16.8
2006-11-17 11:58:58Z 21.459 6.8 -16.2 17.6 18 11871 233 23.9 18.1
2006-11-17 11:59:56Z 21.46 6.7 -16.2 17.6 18 11871 233 21.6 15.8
2006-11-17 12:00:19Z 21.46 6.8 -16.3 17.4 17 11871 233 35.3 11.1
2006-11-17 12:02:37Z 21.459 6.6 -16.7 17 17 11027 283 31.2 19.3
2006-11-17 12:03:57Z 21.46 6.7 -16.8 16.7 17 11027 283 21.5 13.1
2006-11-17 12:06:39Z 21.46 6.8 -17.1 16.2 16 10543 184 10.8 16.8
2006-11-17 12:07:58Z 21.46 6.7 -17.4 16 16 10543 184 31 22.2
2006-11-17 12:10:40Z 21.464 6.7 -17.6 15.7 16 10543 184 37.9 17.3
2006-11-17 12:11:59Z 21.464 6.7 -17.8 15.5 15 9945 162 28 18.5
2006-11-17 12:14:42Z 21.463 7 -17.3 15.8 16 9945 162 31.6 21.3
2006-11-17 12:16:00Z 21.463 6.9 -17.1 16.1 16 9945 162 24 17.9
2006-11-17 12:19:15Z 21.464 7.4 -16.7 16.1 16 8829 168 27.8 18.3
2006-11-17 12:20:01Z 21.464 7.3 -16.7 16.2 16 8829 168 32.1 18.1
2006-11-17 12:23:16Z 21.466 7.3 -16.6 16.4 16 8136 150 25.9 13.4
2006-11-17 12:24:02Z 21.466 7.4 -16.4 16.5 16 8136 150 38.3 18.5
2006-11-17 12:27:18Z 21.466 7.4 -16.6 16.2 16 9637 164 36.5 14.8
2006-11-17 12:28:03Z 21.466 7.5 -16.6 16.2 16 9637 164 29.6 20.7
2006-11-17 12:31:19Z 21.466 7.6 -16.6 16.1 16 7835 138 29.1 13.3
2006-11-17 12:32:04Z 21.466 7.5 -16.6 16.2 16 7835 138 33.4 21
2006-11-17 12:36:05Z 21.466 7.5 -16.6 16.1 16 7671 152 52.5 17.7